Temp
-6 -6 -6 -6 -6 -5 -5 -5 -5 -6 -6 -5 -5 -5 -5 -5 -5 -5 -5 -5 -5 -5 -5 -5 -5 -5 -5 -5 -5 -5 -5 -5 -5 -6 -6 -6 -6 -5 -5 -5 -5 -5 -5 -5 -5 -6 -6 -6 -6 -6 -6 -6 -6 -6 -6 -6 -6 -6 -6 -6 -6 -6 -6
-6 -6 -6 -6 -6 -5 -5 -5 -6 -6 -6 -5 -5 -5 -5 -5 -5 -5 -5 -5 -5 -5 -5 -5 -5 -5 -5 -5 -5 -5 -5 -5 -5 -5 -6 -6 -5 -5 -5 -5 -5 -5 -5 -5 -6 -6 -5 -6 -6 -5 -6 -6 -6 -6 -6 -6 -6 -6 -6 -6 -6 -6 -6
-6 -6 -6 -6 -6 -6 -5 -5 -6 -6 -6 -6 -5 -5 -5 -5 -5 -5 -5 -5 -5 -5 -5 -5 -5 -5 -5 -5 -5 -5 -5 -5 -5 -5 -5 -5 -5 -5 -5 -5 -6 -6 -5 -5 -6 -6 -5 -5 -5 -5 -6 -6 -6 -6 -6 -6 -6 -6 -6 -6 -6 -6 -6
-6 -6 -6 -6 -6 -6 -5 -5 -6 -6 -6 -6 -6 -5 -5 -5 -5 -5 -5 -5 -5 -5 -4 -5 -5 -5 -5 -5 -5 -5 -5 -5 -5 -5 -5 -5 -5 -6 -5 -6 -6 -6 -5 -5 -5 -5 -5 -5 -5 -5 -5 -5 -6 -6 -6 -6 -6 -6 -6 -6 -6 -6 -6
-5 -6 -6 -5 -5 -5 -5 -6 -6 -6 -6 -6 -6 -6 -5 -5 -5 -5 -5 -5 -5 -5 -4 -4 -5 -5 -5 -5 -5 -5 -5 -5 -5 -5 -5 -5 -5 -5 -5 -6 -6 -6 -6 -5 -5 -6 -6 -6 -5 -5 -5 -5 -6 -6 -6 -6 -6 -6 -6 -6 -6 -6 -6
-5 -6 -5 -5 -5 -5 -5 -6 -6 -6 -5 -5 -6 -6 -5 -5 -5 -5 -5 -5 -5 -5 -5 -4 -5 -5 -5 -5 -5 -5 -5 -5 -5 -5 -5 -5 -5 -5 -5 -6 -6 -6 -6 -6 -6 -6 -6 -6 -6 -5 -5 -5 -5 -6 -6 -6 -6 -6 -6 -6 -6 -6 -6
-6 -6 -5 -5 -5 -5 -6 -6 -6 -6 -6 -6 -6 -6 -6 -5 -5 -5 -5 -5 -5 -5 -5 -5 -5 -5 -5 -5 -5 -5 -5 -4 -5 -5 -5 -5 -5 -5 -5 -6 -6 -6 -6 -6 -6 -6 -6 -6 -6 -6 -5 -5 -5 -6 -6 -6 -6 -6 -6 -6 -6 -6 -6
-6 -6 -6 -5 -5 -5 -5 -6 -6 -6 -6 -6 -6 -6 -6 -6 -5 -5 -6 -6 -5 -5 -5 -5 -5 -5 -5 -5 -5 -5 -5 -5 -5 -5 -5 -5 -5 -5 -5 -6 -6 -6 -6 -6 -6 -6 -6 -6 -6 -6 -6 -6 -6 -6 -6 -6 -6 -6 -6 -6 -6 -6 -6
-6 -6 -6 -6 -6 -5 -6 -6 -6 -6 -6 -6 -6 -6 -6 -6 -6 -6 -5 -6 -5 -5 -5 -5 -5 -5 -5 -5 -5 -5 -5 -5 -5 -5 -5 -5 -5 -5 -5 -5 -6 -6 -6 -6 -6 -6 -6 -6 -6 -6 -6 -6 -6 -6 -6 -5 -6 -6 -6 -6 -6 -6 -6
-7 -6 -6 -6 -6 -6 -6 -6 -6 -6 -6 -6 -6 -6 -6 -5 -6 -6 -5 -5 -5 -5 -5 -5 -5 -5 -5 -5 -5 -5 -5 -5 -5 -5 -5 -5 -5 -5 -5 -5 -5 -6 -6 -6 -6 -6 -6 -6 -6 -6 -6 -6 -6 -6 -6 -6 -6 -5 -6 -6 -6 -6 -6
-7 -7 -6 -6 -6 -6 -6 -6 -6 -6 -6 -6 -6 -6 -6 -6 -6 -6 -6 -6 -6 -6 -6 -6 -6 -6 -5 -5 -5 -5 -5 -5 -5 -5 -5 -5 -5 -5 -5 -5 -5 -5 -5 -6 -6 -6 -6 -6 -6 -6 -6 -6 -6 -6 -6 -6 -6 -6 -6 -6 -6 -6 -6
-7 -7 -6 -6 -6 -6 -6 -6 -6 -6 -6 -6 -6 -6 -6 -6 -6 -6 -6 -6 -6 -6 -6 -6 -6 -6 -5 -5 -5 -5 -5 -5 -5 -5 -5 -5 -5 -5 -5 -5 -5 -5 -5 -5 -6 -6 -6 -6 -6 -6 -6 -6 -6 -6 -5 -6 -6 -6 -6 -6 -6 -6 -6
-7 -7 -6 -6 -6 -6 -6 -6 -6 -6 -6 -6 -6 -6 -6 -6 -6 -6 -7 -6 -6 -6 -6 -6 -6 -6 -6 -5 -5 -5 -5 -5 -5 -5 -5 -5 -5 -5 -5 -5 -5 -5 -5 -5 -6 -6 -5 -6 -6 -6 -6 -6 -6 -5 -5 -5 -5 -6 -6 -5 -6 -6 -6
-8 -8 -7 -7 -6 -6 -7 -7 -7 -6 -6 -6 -6 -7 -6 -6 -6 -6 -7 -7 -6 -6 -6 -6 -6 -6 -6 -6 -6 -6 -5 -5 -5 -5 -5 -5 -5 -5 -5 -5 -5 -5 -5 -5 -5 -5 -5 -5 -6 -6 -6 -6 -6 -6 -5 -5 -5 -5 -5 -5 -6 -6 -6
-8 -8 -8 -7 -7 -7 -7 -7 -7 -7 -7 -7 -7 -7 -7 -6 -6 -6 -7 -7 -7 -6 -6 -6 -6 -6 -6 -6 -6 -6 -6 -6 -5 -5 -5 -5 -5 -5 -5 -5 -5 -5 -5 -5 -5 -5 -5 -5 -5 -6 -6 -6 -6 -6 -6 -6 -5 -5 -5 -5 -5 -6 -6
-9 -8 -8 -8 -8 -8 -7 -7 -7 -7 -7 -7 -7 -7 -7 -7 -7 -7 -7 -7 -7 -7 -6 -6 -6 -6 -6 -6 -6 -6 -6 -6 -6 -5 -5 -5 -5 -6 -5 -5 -5 -5 -5 -5 -5 -5 -5 -5 -5 -6 -6 -6 -6 -6 -6 -6 -5 -5 -5 -5 -5 -5 -6
-9 -9 -9 -9 -9 -8 -8 -8 -7 -8 -8 -7 -8 -7 -7 -7 -7 -7 -7 -7 -7 -7 -6 -6 -6 -6 -6 -6 -6 -6 -6 -6 -6 -6 -6 -6 -6 -6 -6 -6 -6 -6 -5 -5 -5 -5 -5 -5 -6 -6 -6 -6 -6 -6 -6 -6 -6 -5 -5 -5 -5 -6 -6
-9 -9 -9 -9 -9 -9 -9 -8 -8 -8 -7 -7 -7 -7 -7 -7 -7 -7 -7 -7 -7 -7 -6 -6 -6 -6 -6 -6 -6 -6 -6 -6 -6 -6 -6 -6 -6 -6 -6 -6 -6 -6 -6 -6 -6 -6 -6 -6 -6 -6 -6 -6 -6 -6 -6 -6 -6 -5 -5 -5 -5 -5 -6
-9 -9 -9 -9 -9 -9 -9 -8 -8 -8 -8 -7 -7 -7 -8 -7 -7 -7 -7 -7 -7 -7 -6 -6 -6 -6 -6 -6 -6 -6 -6 -6 -6 -6 -6 -6 -6 -6 -6 -6 -6 -6 -6 -6 -6 -6 -6 -6 -6 -6 -6 -6 -6 -6 -6 -6 -6 -5 -5 -5 -5 -5 -6
-9 -9 -9 -9 -9 -9 -9 -8 -8 -8 -8 -8 -8 -8 -8 -8 -7 -7 -7 -7 -7 -7 -7 -7 -6 -6 -6 -6 -6 -6 -6 -6 -6 -6 -6 -6 -6 -6 -6 -6 -6 -6 -6 -6 -6 -6 -6 -6 -6 -6 -6 -6 -6 -6 -6 -6 -5 -5 -6 -5 -5 -5 -6
-9 -9 -9 -9 -9 -9 -9 -9 -8 -8 -8 -8 -8 -8 -8 -8 -8 -7 -7 -7 -7 -7 -7 -7 -7 -7 -6 -6 -6 -6 -5 -5 -6 -6 -6 -6 -6 -6 -6 -6 -6 -6 -6 -6 -6 -6 -6 -5 -6 -6 -6 -6 -6 -6 -6 -5 -5 -5 -6 -6 -5 -5 -6
-9 -9 -9 -9 -9 -9 -9 -9 -9 -8 -8 -8 -8 -8 -8 -8 -8 -8 -7 -7 -7 -7 -7 -7 -7 -6 -6 -6 -6 -6 -6 -6 -6 -6 -6 -6 -6 -6 -6 -6 -6 -6 -6 -6 -6 -6 -6 -6 -6 -6 -6 -6 -6 -6 -6 -5 -5 -5 -6 -6 -6 -6 -6
-10 -10 -10 -9 -9 -9 -9 -9 -9 -8 -8 -8 -8 -8 -8 -8 -8 -8 -8 -7 -7 -7 -7 -7 -7 -6 -6 -6 -6 -6 -6 -6 -6 -6 -6 -6 -6 -6 -6 -6 -6 -6 -6 -6 -6 -6 -6 -6 -6 -6 -6 -6 -6 -6 -6 -6 -6 -6 -6 -6 -6 -6 -6
-10 -10 -9 -9 -9 -9 -9 -9 -9 -9 -8 -8 -8 -8 -8 -8 -8 -8 -8 -7 -7 -7 -7 -7 -7 -7 -7 -7 -7 -6 -6 -7 -6 -6 -6 -6 -7 -7 -7 -6 -6 -6 -6 -6 -6 -5 -5 -6 -6 -6 -6 -6 -6 -6 -6 -6 -6 -6 -6 -6 -6 -6 -6
-9 -9 -9 -9 -9 -9 -9 -9 -9 -8 -8 -8 -8 -8 -8 -8 -8 -8 -8 -8 -8 -8 -7 -7 -7 -8 -7 -7 -7 -7 -7 -7 -7 -7 -7 -7 -7 -7 -7 -6 -6 -6 -6 -6 -6 -6 -5 -5 -6 -6 -6 -6 -6 -6 -6 -6 -6 -7 -6 -6 -6 -6 -6
-9 -9 -9 -9 -8 -8 -8 -8 -8 -8 -8 -8 -8 -8 -8 -8 -8 -8 -8 -8 -8 -8 -8 -8 -8 -8 -8 -7 -7 -7 -7 -7 -7 -7 -7 -7 -7 -7 -7 -7 -7 -7 -7 -7 -6 -6 -6 -6 -6 -6 -6 -6 -6 -6 -6 -6 -6 -7 -6 -6 -6 -6 -6
-9 -9 -9 -8 -8 -8 -8 -8 -8 -8 -8 -8 -8 -8 -8 -8 -8 -8 -8 -8 -8 -8 -8 -8 -8 -8 -8 -8 -8 -7 -7 -7 -7 -7 -7 -7 -7 -7 -7 -7 -7 -7 -7 -7 -7 -6 -6 -6 -6 -6 -6 -6 -6 -6 -7 -7 -7 -7 -7 -7 -6 -6 -6
-10 -9 -9 -9 -9 -8 -8 -8 -8 -8 -8 -8 -8 -8 -8 -8 -8 -8 -8 -8 -8 -8 -8 -8 -8 -8 -8 -8 -8 -8 -8 -8 -8 -8 -8 -7 -7 -7 -7 -7 -7 -7 -7 -7 -7 -6 -6 -6 -6 -6 -6 -7 -6 -7 -7 -7 -7 -7 -7 -7 -7 -7 -6
-10 -10 -9 -9 -9 -9 -9 -9 -9 -9 -9 -9 -9 -9 -8 -8 -8 -8 -8 -8 -8 -8 -8 -8 -8 -8 -8 -8 -8 -8 -8 -8 -8 -8 -8 -8 -8 -8 -7 -7 -7 -7 -7 -7 -7 -7 -7 -7 -6 -6 -6 -7 -7 -7 -7 -7 -7 -7 -7 -7 -7 -7 -7
-10 -10 -10 -9 -9 -9 -9 -9 -9 -9 -9 -9 -9 -9 -9 -9 -9 -9 -9 -8 -8 -8 -8 -8 -9 -9 -9 -8 -8 -8 -9 -9 -9 -9 -8 -8 -8 -8 -8 -8 -8 -7 -7 -7 -7 -7 -7 -7 -7 -7 -7 -7 -7 -7 -7 -6 -7 -7 -7 -7 -7 -7 -7
-10 -11 -10 -10 -10 -10 -10 -9 -9 -9 -9 -9 -9 -9 -9 -9 -9 -9 -9 -9 -9 -9 -9 -9 -9 -9 -9 -9 -8 -8 -9 -9 -9 -9 -9 -9 -8 -8 -8 -8 -8 -8 -8 -8 -7 -7 -7 -7 -7 -7 -7 -7 -7 -7 -7 -6 -6 -7 -7 -7 -7 -7 -7
-11 -11 -11 -11 -10 -10 -10 -10 -10 -10 -10 -10 -10 -9 -10 -10 -9 -9 -10 -10 -9 -9 -9 -9 -9 -9 -9 -9 -9 -8 -9 -9 -9 -9 -9 -9 -9 -9 -9 -9 -8 -8 -8 -8 -8 -8 -8 -8 -8 -8 -8 -8 -7 -7 -7 -7 -7 -7 -7 -7 -7 -7 -7
-11 -11 -11 -11 -11 -11 -11 -11 -11 -11 -10 -10 -10 -10 -10 -10 -10 -10 -10 -10 -10 -10 -10 -10 -10 -10 -10 -10 -10 -9 -9 -9 -9 -10 -9 -9 -9 -9 -9 -9 -9 -9 -9 -9 -8 -8 -8 -8 -8 -8 -8 -8 -8 -8 -8 -7 -7 -7 -7 -7 -7 -7 -7
-12 -12 -11 -12 -11 -11 -11 -11 -11 -11 -11 -11 -11 -11 -10 -10 -10 -10 -10 -11 -10 -10 -10 -10 -10 -10 -10 -10 -10 -10 -10 -10 -10 -10 -10 -10 -10 -10 -9 -9 -9 -9 -9 -9 -9 -9 -9 -9 -9 -8 -8 -8 -8 -8 -8 -8 -8 -8 -8 -8 -8 -8 -8
-12 -12 -12 -12 -12 -12 -12 -12 -12 -12 -12 -12 -12 -11 -11 -11 -11 -11 -11 -11 -11 -10 -10 -10 -10 -10 -10 -11 -10 -10 -10 -10 -10 -10 -10 -10 -10 -10 -10 -10 -10 -9 -9 -9 -9 -9 -9 -9 -9 -9 -9 -8 -9 -9 -8 -9 -9 -9 -8 -8 -8 -8 -8
-13 -13 -12 -12 -12 -12 -12 -12 -12 -12 -12 -12 -12 -12 -11 -11 -11 -11 -11 -11 -11 -11 -11 -11 -11 -11 -11 -11 -11 -11 -11 -11 -11 -11 -10 -10 -10 -10 -10 -10 -10 -10 -10 -9 -9 -9 -9 -9 -9 -9 -9 -9 -9 -9 -9 -9 -9 -9 -9 -9 -9 -9 -9
-13 -13 -13 -13 -13 -13 -12 -12 -12 -12 -12 -12 -12 -12 -12 -12 -12 -12 -12 -12 -12 -11 -11 -11 -11 -11 -11 -11 -11 -11 -11 -11 -11 -11 -11 -11 -11 -11 -10 -10 -10 -10 -10 -10 -10 -9 -9 -9 -9 -9 -9 -9 -9 -9 -9 -9 -9 -9 -9 -9 -9 -9 -9
-14 -13 -14 -14 -13 -13 -13 -13 -13 -13 -13 -13 -13 -12 -12 -12 -12 -12 -12 -12 -12 -12 -11 -11 -11 -11 -11 -11 -11 -11 -11 -11 -11 -11 -11 -11 -11 -11 -11 -11 -10 -10 -10 -10 -10 -10 -10 -10 -10 -10 -9 -9 -9 -10 -9 -9 -9 -9 -9 -9 -9 -9 -9
Height
5904 5906 5907 5908 5910 5913 5915 5916 5918 5919 5919 5920 5922 5923 5924 5926 5928 5930 5932 5933 5934 5935 5936 5937 5938 5939 5940 5941 5942 5944 5945 5947 5948 5948 5949 5950 5950 5951 5952 5952 5953 5954 5954 5955 5955 5956 5957 5957 5958 5958 5959 5959 5960 5960 5960 5961 5961 5961 5962 5962 5963 5963 5964
5902 5904 5905 5906 5908 5910 5912 5914 5916 5917 5918 5919 5920 5921 5923 5925 5927 5929 5930 5931 5933 5934 5935 5936 5937 5938 5939 5940 5942 5943 5944 5946 5947 5948 5949 5949 5950 5951 5952 5952 5953 5954 5954 5955 5956 5956 5957 5957 5957 5958 5958 5959 5960 5960 5960 5961 5961 5961 5962 5962 5963 5963 5964
5900 5902 5903 5905 5907 5908 5910 5912 5913 5915 5916 5917 5919 5920 5922 5923 5925 5927 5928 5930 5931 5933 5934 5935 5936 5937 5939 5940 5941 5942 5943 5945 5946 5947 5948 5949 5950 5951 5951 5952 5953 5954 5954 5955 5956 5956 5957 5957 5957 5958 5958 5959 5959 5960 5960 5960 5961 5961 5962 5962 5963 5963 5964
5898 5900 5901 5903 5904 5905 5908 5909 5911 5912 5914 5915 5917 5919 5920 5922 5923 5925 5926 5928 5930 5931 5933 5934 5935 5936 5938 5939 5940 5941 5942 5943 5945 5946 5947 5948 5950 5950 5951 5951 5952 5953 5954 5955 5956 5956 5956 5957 5957 5958 5958 5958 5959 5959 5960 5960 5960 5961 5961 5962 5963 5963 5964
5896 5898 5900 5901 5903 5904 5905 5908 5909 5911 5912 5913 5915 5917 5919 5920 5922 5923 5924 5926 5928 5930 5931 5932 5934 5935 5937 5938 5939 5940 5941 5942 5944 5945 5946 5947 5949 5950 5950 5951 5952 5953 5953 5954 5955 5956 5956 5957 5957 5957 5958 5958 5958 5959 5959 5960 5960 5961 5961 5962 5963 5964 5964
5895 5897 5899 5900 5902 5903 5904 5906 5908 5909 5910 5912 5914 5915 5917 5919 5920 5922 5923 5924 5926 5928 5929 5931 5933 5934 5935 5936 5937 5938 5940 5941 5943 5944 5945 5946 5947 5948 5949 5951 5952 5952 5952 5952 5953 5954 5955 5956 5956 5957 5957 5957 5958 5958 5959 5959 5960 5960 5961 5962 5963 5963 5963
5894 5896 5898 5898 5899 5901 5903 5904 5906 5908 5909 5911 5912 5914 5915 5917 5919 5921 5922 5923 5924 5926 5927 5929 5931 5933 5934 5935 5936 5937 5939 5940 5941 5943 5944 5945 5946 5947 5948 5950 5951 5951 5951 5951 5952 5953 5954 5954 5955 5956 5957 5957 5958 5958 5958 5959 5960 5960 5960 5961 5962 5962 5962
5892 5894 5895 5896 5898 5899 5901 5902 5904 5906 5907 5909 5910 5912 5914 5916 5918 5920 5921 5922 5923 5924 5925 5927 5929 5931 5932 5933 5934 5936 5937 5938 5940 5941 5942 5943 5944 5945 5947 5948 5950 5950 5950 5951 5951 5952 5952 5954 5954 5955 5956 5957 5957 5957 5958 5959 5959 5960 5960 5960 5961 5962 5962
5889 5891 5892 5894 5895 5897 5899 5901 5902 5904 5905 5907 5908 5910 5911 5913 5916 5918 5919 5920 5921 5922 5923 5925 5927 5928 5930 5931 5932 5934 5935 5937 5938 5940 5941 5942 5942 5944 5945 5947 5948 5949 5950 5950 5951 5951 5951 5952 5954 5954 5956 5957 5957 5957 5957 5958 5958 5959 5959 5960 5960 5961 5962
5887 5889 5892 5893 5893 5895 5897 5898 5900 5901 5903 5904 5906 5907 5909 5911 5913 5914 5916 5917 5918 5920 5921 5923 5925 5926 5928 5929 5930 5931 5933 5935 5936 5938 5939 5940 5941 5942 5943 5945 5947 5948 5948 5949 5950 5950 5950 5951 5952 5953 5954 5955 5956 5956 5956 5957 5957 5957 5958 5959 5959 5960 5961
5886 5888 5890 5891 5892 5893 5894 5895 5897 5899 5900 5902 5903 5905 5907 5908 5909 5910 5913 5915 5916 5918 5919 5921 5923 5924 5926 5927 5928 5929 5931 5932 5934 5935 5937 5939 5940 5941 5942 5943 5944 5945 5946 5948 5949 5949 5949 5950 5951 5951 5952 5953 5954 5954 5955 5955 5955 5956 5957 5957 5958 5959 5960
5885 5886 5887 5888 5890 5891 5891 5891 5894 5895 5897 5899 5900 5902 5903 5904 5905 5907 5909 5912 5914 5916 5917 5919 5921 5922 5924 5925 5926 5927 5929 5930 5931 5932 5934 5935 5937 5938 5939 5941 5942 5943 5944 5945 5946 5947 5948 5949 5949 5950 5951 5952 5952 5953 5953 5953 5954 5954 5955 5956 5956 5957 5958
5882 5883 5885 5886 5888 5889 5887 5888 5890 5892 5894 5896 5897 5898 5899 5900 5901 5903 5906 5908 5911 5913 5914 5916 5918 5920 5921 5923 5924 5926 5927 5927 5928 5929 5931 5932 5934 5935 5937 5938 5939 5940 5942 5943 5944 5945 5946 5947 5948 5948 5949 5950 5950 5951 5951 5952 5952 5953 5953 5954 5955 5955 5956
5879 5880 5882 5883 5885 5886 5885 5885 5887 5889 5891 5893 5895 5895 5896 5897 5898 5899 5902 5905 5907 5909 5911 5913 5915 5917 5918 5920 5922 5923 5925 5926 5926 5927 5928 5930 5931 5932 5934 5935 5936 5938 5939 5940 5942 5942 5943 5945 5946 5947 5948 5948 5948 5949 5949 5950 5950 5951 5952 5952 5953 5954 5954
5878 5879 5880 5882 5882 5884 5884 5884 5885 5887 5889 5891 5893 5894 5895 5896 5896 5897 5900 5903 5905 5907 5908 5910 5912 5914 5916 5917 5919 5920 5922 5923 5924 5925 5926 5927 5928 5930 5931 5932 5934 5935 5936 5937 5939 5939 5940 5941 5943 5944 5946 5946 5946 5946 5947 5947 5948 5948 5949 5950 5951 5952 5953
5877 5878 5879 5880 5880 5881 5881 5882 5884 5885 5887 5889 5890 5892 5893 5894 5895 5896 5898 5900 5902 5904 5905 5907 5909 5911 5913 5915 5916 5917 5919 5920 5921 5922 5923 5925 5926 5927 5928 5930 5931 5932 5933 5935 5935 5936 5937 5938 5939 5941 5942 5943 5943 5943 5944 5944 5944 5945 5946 5947 5948 5949 5950
5875 5876 5877 5878 5878 5879 5879 5881 5882 5884 5885 5887 5888 5890 5891 5892 5892 5894 5896 5897 5899 5901 5902 5904 5907 5908 5910 5912 5913 5914 5916 5917 5918 5919 5921 5922 5923 5924 5925 5926 5928 5929 5930 5931 5933 5933 5934 5935 5936 5937 5938 5939 5940 5940 5941 5941 5941 5942 5943 5944 5945 5946 5947
5872 5874 5875 5876 5877 5877 5878 5879 5881 5882 5884 5885 5886 5887 5888 5889 5890 5891 5893 5895 5896 5898 5899 5901 5903 5905 5907 5908 5910 5911 5913 5913 5915 5916 5918 5919 5920 5921 5922 5922 5924 5925 5926 5927 5929 5930 5931 5932 5933 5934 5934 5935 5936 5937 5938 5938 5937 5938 5939 5940 5942 5943 5943
5869 5871 5872 5873 5874 5875 5876 5878 5879 5881 5881 5882 5883 5884 5885 5887 5888 5889 5891 5892 5894 5895 5897 5898 5900 5901 5903 5905 5906 5908 5909 5910 5911 5913 5915 5916 5916 5917 5918 5919 5920 5921 5922 5923 5925 5926 5927 5927 5929 5930 5931 5931 5932 5933 5934 5934 5934 5935 5936 5936 5939 5940 5940
5866 5867 5869 5871 5872 5873 5874 5875 5877 5878 5879 5881 5881 5882 5883 5885 5886 5887 5889 5890 5892 5893 5894 5895 5897 5899 5900 5901 5903 5904 5905 5906 5908 5909 5911 5912 5912 5913 5914 5915 5916 5917 5918 5919 5921 5922 5922 5922 5923 5925 5927 5928 5929 5929 5929 5929 5930 5932 5933 5933 5935 5937 5937
5862 5864 5865 5867 5868 5869 5871 5873 5874 5875 5877 5878 5879 5880 5881 5883 5884 5885 5887 5888 5889 5891 5892 5893 5895 5896 5897 5898 5899 5900 5901 5902 5903 5906 5908 5908 5908 5909 5910 5910 5912 5913 5914 5916 5918 5918 5918 5918 5919 5921 5923 5924 5925 5926 5925 5924 5927 5930 5930 5930 5931 5933 5934
5857 5859 5861 5862 5864 5866 5867 5869 5870 5872 5873 5875 5876 5877 5879 5881 5882 5883 5884 5885 5886 5888 5889 5891 5892 5893 5894 5895 5896 5897 5898 5898 5900 5903 5905 5904 5905 5906 5906 5907 5909 5910 5911 5912 5913 5915 5915 5916 5917 5918 5918 5919 5921 5921 5920 5921 5924 5926 5926 5926 5927 5928 5930
5853 5855 5856 5857 5859 5861 5863 5865 5867 5868 5869 5871 5872 5874 5876 5878 5879 5880 5881 5882 5883 5885 5886 5887 5889 5890 5892 5892 5893 5894 5895 5896 5898 5900 5901 5901 5902 5903 5904 5905 5906 5906 5907 5908 5910 5911 5912 5913 5913 5913 5914 5915 5915 5915 5915 5917 5919 5921 5922 5921 5922 5924 5926
5848 5850 5851 5853 5854 5857 5858 5860 5863 5864 5865 5867 5868 5870 5872 5874 5876 5877 5878 5879 5880 5882 5883 5884 5885 5887 5888 5889 5890 5891 5893 5894 5895 5896 5897 5898 5899 5900 5901 5902 5903 5903 5904 5905 5907 5908 5908 5909 5909 5910 5910 5910 5909 5909 5911 5913 5913 5915 5916 5916 5916 5919 5921
5843 5845 5847 5848 5850 5852 5854 5856 5858 5860 5861 5863 5864 5866 5868 5870 5872 5873 5874 5875 5877 5878 5879 5881 5882 5883 5885 5886 5887 5889 5890 5891 5892 5893 5894 5895 5896 5897 5898 5899 5900 5900 5901 5902 5904 5905 5905 5905 5906 5906 5906 5906 5904 5904 5907 5908 5907 5907 5909 5910 5911 5913 5915
5839 5840 5842 5843 5845 5847 5849 5851 5853 5855 5857 5858 5859 5861 5863 5865 5867 5868 5870 5871 5873 5874 5876 5877 5879 5880 5881 5882 5884 5885 5886 5887 5889 5890 5892 5893 5894 5894 5895 5896 5896 5897 5898 5899 5901 5901 5901 5902 5902 5902 5903 5903 5901 5900 5901 5902 5902 5902 5904 5905 5906 5908 5910
5833 5835 5837 5839 5840 5842 5844 5846 5848 5850 5852 5853 5854 5856 5858 5860 5862 5864 5865 5867 5868 5870 5872 5873 5875 5876 5877 5878 5879 5881 5882 5883 5885 5886 5888 5889 5890 5891 5892 5892 5893 5893 5894 5896 5897 5898 5899 5898 5898 5898 5899 5899 5897 5896 5896 5897 5897 5898 5900 5902 5903 5904 5906
5828 5830 5832 5833 5835 5837 5839 5841 5843 5845 5846 5848 5850 5851 5853 5855 5857 5859 5861 5863 5864 5866 5867 5869 5870 5872 5873 5874 5875 5876 5878 5879 5881 5882 5883 5885 5886 5887 5888 5888 5889 5889 5890 5892 5893 5895 5895 5895 5895 5897 5897 5896 5895 5894 5894 5895 5894 5894 5896 5898 5900 5901 5903
5824 5826 5827 5828 5830 5832 5834 5836 5838 5839 5840 5842 5844 5846 5848 5851 5853 5854 5856 5858 5859 5861 5862 5864 5865 5867 5869 5870 5871 5872 5874 5875 5876 5877 5879 5880 5881 5883 5884 5884 5885 5886 5887 5888 5889 5890 5891 5892 5893 5894 5894 5893 5894 5894 5894 5894 5893 5893 5894 5896 5897 5898 5899
5819 5820 5821 5822 5824 5826 5829 5831 5832 5833 5834 5837 5839 5841 5843 5845 5847 5849 5851 5852 5854 5856 5857 5859 5860 5862 5864 5865 5866 5868 5869 5870 5872 5873 5874 5875 5877 5878 5879 5880 5881 5882 5883 5884 5885 5886 5887 5888 5889 5890 5890 5890 5891 5891 5892 5892 5891 5891 5892 5893 5894 5894 5895
5813 5814 5815 5816 5817 5819 5821 5823 5824 5826 5828 5831 5834 5836 5837 5839 5841 5843 5845 5847 5849 5850 5852 5854 5856 5857 5858 5860 5862 5864 5864 5866 5867 5868 5869 5871 5872 5874 5875 5876 5877 5878 5879 5880 5881 5882 5883 5884 5884 5885 5886 5886 5887 5887 5887 5887 5887 5887 5888 5890 5891 5891 5892
5808 5809 5810 5812 5812 5813 5815 5817 5818 5820 5822 5824 5827 5830 5832 5833 5835 5837 5839 5842 5844 5846 5847 5848 5850 5852 5854 5855 5858 5859 5860 5861 5863 5864 5865 5867 5868 5870 5871 5872 5873 5874 5875 5876 5877 5878 5878 5879 5880 5881 5882 5882 5883 5883 5883 5883 5883 5883 5884 5885 5887 5888 5888
5803 5804 5805 5807 5808 5809 5810 5811 5812 5814 5816 5818 5820 5823 5825 5826 5829 5832 5834 5837 5839 5841 5842 5843 5845 5847 5848 5850 5852 5854 5855 5857 5858 5860 5861 5863 5864 5866 5867 5868 5869 5870 5871 5872 5873 5874 5874 5875 5876 5877 5878 5878 5879 5879 5880 5880 5880 5880 5881 5881 5882 5883 5885
5798 5799 5800 5801 5802 5803 5805 5807 5807 5808 5810 5812 5814 5816 5818 5820 5823 5826 5828 5831 5834 5835 5836 5837 5839 5841 5843 5845 5847 5848 5850 5852 5853 5855 5857 5858 5860 5861 5863 5864 5865 5866 5867 5868 5868 5869 5870 5871 5872 5872 5873 5874 5874 5875 5875 5876 5876 5876 5877 5878 5879 5879 5880
5792 5794 5795 5796 5797 5797 5799 5801 5803 5804 5805 5806 5808 5811 5812 5814 5817 5819 5822 5825 5828 5830 5831 5832 5834 5836 5838 5840 5841 5843 5845 5846 5848 5850 5851 5853 5855 5856 5858 5859 5861 5862 5863 5864 5864 5865 5866 5867 5867 5868 5869 5870 5871 5870 5871 5872 5872 5872 5873 5874 5875 5876 5877
5787 5789 5790 5791 5791 5792 5793 5795 5797 5799 5800 5801 5804 5806 5808 5809 5812 5814 5817 5820 5822 5824 5825 5827 5828 5830 5833 5835 5836 5838 5840 5841 5843 5844 5846 5848 5850 5851 5852 5854 5856 5857 5858 5859 5860 5860 5861 5862 5863 5863 5864 5866 5867 5866 5867 5869 5869 5869 5870 5871 5871 5872 5873
5783 5785 5786 5786 5786 5787 5789 5790 5791 5793 5794 5796 5798 5800 5803 5805 5807 5809 5812 5814 5817 5818 5820 5821 5823 5825 5827 5829 5831 5832 5834 5836 5837 5838 5840 5842 5844 5845 5847 5848 5850 5851 5853 5854 5854 5855 5856 5857 5858 5858 5859 5861 5862 5862 5863 5864 5865 5865 5866 5867 5868 5869 5869
5779 5780 5781 5781 5782 5783 5784 5785 5786 5787 5788 5790 5792 5794 5796 5799 5802 5804 5806 5808 5811 5813 5814 5815 5817 5820 5821 5823 5825 5826 5828 5829 5831 5832 5834 5836 5838 5839 5841 5842 5844 5846 5847 5848 5849 5850 5851 5852 5853 5854 5854 5856 5857 5858 5858 5859 5861 5861 5862 5863 5864 5864 5865
Wind_Speed
16 16 17 24 30 28 26 25 23 21 21 22 23 23 25 25 24 24 24 23 22 21 21 20 19 19 18 17 17 16 14 13 12 10 9 9 9 8 7 6 6 6 5 5 6 6 6 7 7 6 6 5 5 5 4 5 5 4 4 4 4 3 4
14 15 15 18 26 30 29 27 25 23 21 22 23 23 24 24 25 25 25 25 24 23 22 22 21 20 19 19 19 19 17 15 13 12 12 11 11 9 8 6 6 6 6 5 5 5 5 6 6 6 5 5 5 5 5 5 5 5 5 5 4 4 4
13 15 16 16 20 26 32 32 28 25 24 23 23 23 22 23 24 25 26 27 26 25 24 23 22 21 20 20 21 20 19 16 15 14 14 12 11 11 9 8 7 7 7 6 6 6 6 5 5 5 5 4 4 4 4 5 5 5 5 5 5 5 5
14 15 17 17 18 21 28 33 30 27 26 24 23 23 22 22 23 24 25 26 27 27 26 25 24 22 21 21 21 21 20 18 17 16 15 14 13 12 11 9 8 8 8 6 6 6 6 6 6 6 5 4 4 4 4 4 4 4 5 5 5 5 5
16 16 17 18 18 18 22 28 29 28 26 25 24 23 22 22 22 23 23 24 26 26 27 27 25 24 23 22 23 23 21 20 18 17 17 16 15 14 12 10 9 9 8 7 7 7 7 7 7 6 6 5 4 4 4 5 5 5 5 6 6 6 5
17 16 16 17 18 18 19 22 23 24 25 25 24 23 23 22 22 22 22 23 24 25 26 26 25 25 25 25 25 24 23 21 19 18 17 17 16 15 13 11 11 11 10 9 9 9 9 9 8 7 7 6 5 5 5 5 6 6 6 6 6 6 6
17 16 16 17 19 18 18 21 23 23 24 24 24 24 23 21 21 21 21 21 22 23 23 23 24 25 26 26 26 25 24 22 21 19 18 18 17 16 15 13 13 13 12 11 11 11 11 10 10 9 8 7 7 6 6 7 7 7 7 7 6 5 6
17 16 15 15 17 17 17 19 23 24 24 25 25 25 24 23 22 22 22 22 23 23 22 21 22 23 24 26 26 26 25 24 22 20 19 18 18 18 17 16 16 15 14 14 13 13 13 12 12 11 10 9 8 8 8 8 8 8 8 7 6 6 6
18 16 16 16 17 17 15 16 19 22 24 24 25 25 25 25 25 25 25 25 25 23 21 21 22 22 23 25 25 25 25 24 23 22 21 20 20 19 19 18 17 17 16 16 15 15 15 14 13 14 13 11 10 10 10 9 9 9 9 8 8 7 7
20 18 17 16 16 16 17 17 18 19 20 21 22 24 26 27 29 28 26 26 25 24 23 22 22 22 23 23 24 24 24 23 22 22 21 22 22 21 21 20 19 19 19 18 18 18 17 16 15 15 15 14 13 13 12 11 11 10 10 10 10 9 9
21 20 19 16 14 15 18 21 22 21 20 20 21 23 25 28 32 32 30 28 27 26 25 24 23 23 24 24 24 23 22 22 22 21 21 21 22 22 23 22 21 20 20 19 19 20 19 18 17 17 17 17 16 15 14 13 13 12 12 12 12 11 11
21 22 21 18 14 13 16 19 22 23 21 18 18 21 23 26 32 35 34 32 30 29 28 27 25 25 24 24 24 24 23 23 22 22 21 21 21 22 22 22 22 21 21 20 20 21 21 20 20 19 19 19 18 17 17 16 16 15 14 14 14 13 13
22 23 22 20 16 13 13 15 19 21 20 18 17 19 21 24 29 35 36 34 33 32 30 29 28 27 26 25 25 25 25 24 23 23 22 22 22 22 21 21 21 21 22 21 22 23 23 22 22 21 21 20 20 20 20 19 18 17 17 16 15 15 15
24 24 24 23 20 16 14 14 16 19 20 20 20 20 21 21 24 32 37 35 34 35 33 32 30 29 28 27 26 26 26 25 24 23 22 22 22 21 21 21 21 21 21 22 23 25 25 25 24 23 22 22 22 22 22 22 21 20 19 19 18 17 16
26 25 25 25 24 22 19 16 16 17 19 20 20 20 21 20 20 27 34 35 35 36 34 33 32 31 30 29 28 27 27 26 26 25 24 23 22 22 22 21 21 22 22 22 24 25 26 26 26 25 24 23 23 24 24 24 24 23 22 21 20 19 18
29 27 26 25 25 25 23 21 20 20 20 20 19 18 18 18 18 21 27 31 34 37 36 34 33 32 32 31 30 30 29 29 28 28 26 25 24 24 23 22 22 22 22 23 24 26 26 26 27 27 27 26 25 26 26 26 26 25 24 24 22 20 19
30 29 27 26 25 24 24 25 24 23 23 22 21 18 17 17 18 19 20 22 24 29 34 36 36 35 34 33 32 31 31 31 31 30 29 27 27 26 26 25 24 23 24 24 25 27 27 28 28 29 29 28 28 28 27 28 29 27 26 26 24 23 22
32 30 29 29 27 26 26 27 27 26 26 26 24 21 19 18 18 18 19 18 18 20 24 28 31 34 35 36 35 35 34 34 34 33 32 30 29 29 29 29 27 27 27 27 28 28 29 29 30 30 30 30 31 30 29 31 32 30 28 28 26 25 24
35 33 31 30 29 28 29 30 30 29 28 28 27 25 22 21 20 19 19 19 18 18 18 20 23 26 29 32 34 37 38 39 37 36 34 33 33 33 32 30 29 29 29 29 29 29 29 29 31 32 32 31 31 32 32 34 35 32 31 30 27 26 26
38 36 34 32 32 32 32 32 32 32 31 30 29 28 26 25 23 22 21 21 19 17 17 17 19 21 23 25 27 30 34 38 40 39 37 38 38 36 33 31 29 29 29 28 27 27 28 29 29 30 32 33 33 33 34 36 35 33 33 33 30 27 27
39 38 37 36 35 36 36 36 36 35 34 33 31 30 29 27 26 24 24 23 22 20 18 17 17 19 20 22 24 25 26 30 36 37 35 35 34 34 32 29 28 28 28 26 25 26 28 30 29 28 30 33 35 36 37 37 35 32 33 35 34 31 30
38 38 38 39 39 39 39 39 39 38 37 36 35 33 31 29 28 27 26 25 24 24 23 22 21 22 21 21 23 24 23 23 27 29 28 27 26 26 26 25 24 25 24 23 23 24 25 27 30 32 32 33 34 37 39 38 35 33 34 36 37 35 33
38 38 39 40 41 41 41 41 41 40 39 38 38 37 34 32 30 30 29 27 26 25 25 25 25 25 25 24 22 22 22 23 24 26 25 24 23 22 21 21 21 23 23 21 20 21 23 25 28 32 34 34 33 35 38 39 38 36 36 38 39 37 35
38 39 40 41 42 42 43 42 42 41 41 40 39 39 37 34 32 31 30 28 27 27 27 27 28 28 27 27 24 22 22 23 24 25 25 24 23 21 21 21 22 22 22 20 18 18 21 25 28 31 34 35 36 35 34 36 39 39 38 39 38 37 35
40 41 42 42 43 43 43 43 42 42 42 41 41 40 38 35 34 33 32 31 29 28 27 27 28 27 27 27 25 24 24 24 24 24 24 24 23 23 22 23 23 23 22 20 19 19 19 21 25 27 29 33 38 40 36 35 38 41 41 39 37 35 35
40 41 42 43 43 43 43 42 42 41 41 41 41 41 39 37 35 34 34 33 32 30 28 27 27 28 29 28 27 26 26 26 26 26 26 25 24 24 23 23 23 24 23 22 21 20 19 19 20 21 22 26 32 38 39 39 40 41 41 39 37 36 36
41 41 42 42 43 43 43 43 42 41 41 41 41 42 41 39 37 36 35 34 33 32 31 29 28 29 29 29 28 28 28 28 28 28 28 27 27 26 25 25 25 25 25 24 22 22 20 18 16 16 17 19 22 26 32 37 41 43 41 40 38 38 37
39 40 41 42 42 41 41 42 42 41 40 40 40 42 42 40 38 37 36 35 35 34 33 32 30 29 29 29 30 30 30 30 29 29 29 29 29 28 28 28 28 28 27 27 26 26 25 23 20 18 18 18 19 20 21 26 33 39 40 40 39 37 36
36 38 40 40 41 40 38 39 39 39 39 39 39 40 41 39 37 37 37 37 37 36 36 35 33 31 30 31 31 31 31 31 31 31 31 30 30 30 29 29 29 29 29 29 29 29 30 30 29 28 27 26 25 24 22 22 23 26 28 31 34 36 37
37 37 37 37 39 41 41 41 42 42 41 40 39 40 41 40 38 38 37 37 38 38 37 37 36 34 32 33 33 33 33 33 32 32 32 32 31 31 30 30 31 31 30 31 31 31 31 31 30 30 30 30 29 30 30 30 28 25 22 22 24 27 30
42 41 39 37 37 38 39 42 46 47 46 43 42 42 42 42 41 39 38 38 38 38 37 37 37 36 36 34 34 35 34 34 34 34 34 34 33 33 32 32 32 32 32 32 33 33 33 32 31 30 29 29 30 31 32 33 32 29 25 22 21 22 22
45 46 44 42 40 38 35 36 42 46 48 47 45 44 44 45 45 43 40 38 39 39 38 37 38 38 37 36 36 36 37 36 36 35 35 35 34 34 34 33 33 33 33 33 33 33 33 33 32 31 31 30 31 32 32 32 33 32 30 27 27 26 24
46 48 48 46 46 45 40 36 37 39 42 46 47 48 48 47 46 46 43 39 38 39 40 41 40 39 38 38 38 38 39 38 37 36 36 35 35 34 34 34 34 34 34 34 34 34 34 34 33 33 33 33 32 33 33 32 32 33 33 32 30 28 26
45 48 50 49 48 49 46 42 40 39 40 41 43 45 50 52 49 48 45 41 39 40 41 42 41 40 38 38 38 38 39 39 38 37 36 36 36 36 35 35 35 35 35 35 35 34 34 34 35 34 34 34 33 32 32 30 30 31 31 31 30 29 27
40 43 47 48 48 49 49 46 44 43 42 42 39 38 42 49 51 49 45 42 42 44 43 42 41 40 39 38 38 38 39 39 38 38 38 38 37 37 37 36 36 36 36 35 36 36 35 35 35 35 34 33 32 31 30 29 29 29 29 29 29 29 29
36 37 40 43 45 46 47 46 44 44 44 44 43 40 39 42 45 47 46 45 45 45 44 44 44 42 40 39 39 39 39 39 39 39 39 39 39 38 38 38 38 37 37 36 36 36 36 36 36 36 35 34 33 32 31 30 30 30 30 30 31 31 31
35 32 33 36 39 42 44 43 42 43 44 44 45 46 44 42 41 43 45 47 48 48 47 47 47 45 43 42 42 42 42 41 41 41 41 40 40 40 40 40 40 39 38 38 37 37 37 37 37 37 36 35 34 34 33 32 31 31 31 31 31 32 32
40 37 34 32 33 36 40 41 40 39 40 41 42 45 46 45 43 43 43 45 46 47 48 50 50 48 48 47 47 46 46 46 45 45 44 44 43 43 43 42 42 41 41 40 39 38 38 38 38 39 38 38 37 36 36 35 34 34 34 34 33 34 34
Wind_Direction
228 232 236 224 216 216 217 217 217 213 210 211 212 211 213 215 216 218 220 221 221 220 220 219 219 220 221 225 231 233 231 226 222 218 216 218 218 212 207 209 210 205 206 210 209 205 206 211 211 209 211 209 208 212 218 225 229 230 232 233 235 236 243
228 231 232 223 217 217 216 214 212 210 210 211 214 214 215 217 218 220 222 223 222 222 222 221 220 221 221 225 231 235 235 232 227 224 221 221 222 218 212 214 218 212 209 209 212 218 217 215 215 212 208 207 207 211 215 220 226 228 232 235 235 235 241
228 231 229 226 225 223 218 213 208 206 208 211 215 217 218 219 220 222 224 225 225 224 224 224 223 222 222 225 230 234 236 235 233 231 229 226 225 224 219 217 220 221 221 215 210 221 227 226 227 223 217 215 214 218 220 224 227 229 235 239 240 238 238
227 231 231 228 229 227 219 212 206 203 206 211 214 218 220 222 224 225 227 228 228 227 226 225 226 224 223 224 229 233 234 234 233 234 234 230 228 228 225 220 222 225 231 231 224 226 231 234 237 233 228 225 222 225 228 228 230 233 239 240 241 241 240
233 235 235 232 229 229 222 214 206 203 206 211 215 219 222 224 227 229 230 231 231 231 230 228 227 227 226 225 228 231 232 231 230 231 234 234 233 233 229 225 228 231 233 236 239 242 241 240 241 241 238 233 228 228 231 234 235 234 238 240 240 241 241
240 242 237 233 231 229 227 221 213 210 211 213 217 221 224 226 230 232 234 234 234 234 233 231 230 230 229 228 229 231 233 232 230 229 231 234 236 238 235 229 229 233 234 234 239 246 247 247 247 247 246 242 236 232 231 236 238 236 237 238 238 241 245
239 241 235 232 233 230 229 227 222 220 218 217 219 223 227 229 230 232 235 236 237 236 235 234 233 233 232 232 232 233 234 234 232 230 231 233 236 238 239 235 232 232 233 233 238 245 249 251 252 252 251 251 248 241 232 233 236 238 239 238 236 241 251
239 240 235 231 233 233 232 230 225 225 224 222 223 225 228 229 227 229 231 232 235 238 237 236 236 235 235 234 235 235 236 237 235 233 233 235 237 237 237 237 235 234 234 233 236 241 243 248 254 254 251 249 251 246 239 237 238 239 243 243 240 238 245
242 243 241 238 235 232 230 228 225 227 229 230 229 229 230 231 229 229 230 229 232 237 236 235 235 234 234 235 236 237 238 238 237 235 234 235 238 239 238 237 235 235 235 235 237 239 239 242 249 254 251 246 247 248 246 243 242 241 243 246 246 241 239
241 241 243 243 238 233 231 230 229 231 234 235 234 233 234 235 233 230 230 229 231 233 235 234 233 232 232 233 235 236 237 239 239 237 235 234 236 239 239 239 237 236 235 234 236 240 241 241 242 248 250 245 242 246 246 244 244 243 242 243 244 244 244
235 236 240 239 236 237 237 234 232 234 237 238 237 236 237 239 236 231 228 229 229 229 231 232 232 231 230 230 231 232 233 235 236 237 236 236 236 238 239 240 239 238 239 238 237 240 244 243 241 243 247 246 244 244 245 244 243 242 240 241 242 243 245
234 234 238 239 237 235 234 234 236 238 239 240 241 242 245 247 243 235 227 226 228 228 228 229 229 229 228 228 229 230 230 231 231 232 233 234 236 237 238 240 240 240 242 242 242 243 245 246 246 245 246 247 247 247 247 246 245 242 240 240 240 242 244
236 234 234 234 235 235 234 235 239 240 240 242 247 253 256 257 252 239 227 224 227 228 228 228 227 227 227 226 228 229 230 230 229 229 229 230 232 234 236 238 240 241 242 242 245 249 248 246 247 248 247 248 249 249 250 249 248 247 245 244 243 243 244
235 235 235 235 236 241 245 241 240 241 243 245 249 256 260 263 255 237 226 223 227 228 228 228 227 226 226 224 226 228 230 232 232 233 233 232 232 233 234 235 238 240 241 241 244 249 251 249 247 248 249 250 251 251 251 251 251 250 249 248 247 247 248
232 234 236 236 235 239 245 244 241 244 249 251 252 256 260 265 260 237 225 226 230 229 229 229 228 228 227 225 224 225 228 232 233 235 236 235 235 235 235 236 238 240 242 242 242 245 249 251 251 251 251 251 252 253 252 252 252 252 252 250 249 249 251
231 234 236 236 234 238 244 245 243 243 248 253 255 258 260 267 267 249 233 231 232 231 231 231 230 230 230 228 227 227 228 232 234 235 236 236 238 239 240 241 243 246 247 247 247 247 248 250 252 252 251 250 251 253 254 254 253 251 252 253 252 251 251
231 235 239 240 238 239 243 244 245 246 248 250 254 258 260 264 269 264 253 245 239 235 234 234 234 233 232 232 231 231 232 234 236 238 238 238 240 241 242 244 246 250 252 252 254 253 251 250 250 251 251 250 250 252 253 254 254 253 252 252 252 252 251
232 234 238 241 243 244 244 245 246 248 247 247 250 254 257 260 264 268 267 264 259 252 245 240 237 235 234 234 235 235 236 237 239 241 243 244 245 244 244 245 246 249 252 253 255 256 256 253 251 251 250 249 250 251 252 253 254 254 253 252 251 251 252
233 234 236 239 242 245 246 246 247 249 249 248 249 252 256 258 259 263 266 266 265 264 258 250 243 238 237 237 238 239 240 240 241 242 244 245 247 248 246 245 247 247 249 251 254 258 260 256 252 252 251 250 250 250 251 254 255 254 254 254 253 252 253
232 234 235 237 241 243 245 246 247 248 249 249 250 252 255 257 259 261 261 262 262 261 259 254 248 244 242 241 243 245 245 244 243 244 246 247 248 248 244 242 245 248 248 251 254 258 258 253 251 253 254 253 252 251 251 253 255 256 257 258 256 253 253
232 234 235 237 239 242 244 245 246 248 249 249 250 252 254 256 258 259 259 259 258 257 255 252 249 250 250 247 247 249 251 247 242 242 247 247 245 245 241 237 243 250 252 253 254 254 254 251 250 255 259 258 254 252 252 252 253 255 258 259 258 254 252
233 233 235 236 238 240 243 244 246 247 249 250 250 252 254 256 257 259 259 258 257 256 255 254 254 256 257 254 250 248 249 246 240 239 242 241 240 242 239 236 242 251 254 256 256 253 253 252 248 250 255 257 256 253 253 253 253 252 253 256 258 256 254
234 234 234 235 236 238 241 243 245 247 249 250 251 252 254 256 258 258 258 257 256 255 254 254 255 255 254 252 249 246 246 247 243 241 242 242 242 242 238 237 244 249 252 257 259 255 251 251 251 252 253 251 250 252 254 254 253 251 250 252 254 256 256
237 235 236 237 237 238 239 240 242 245 247 249 251 252 253 255 256 256 255 256 256 254 252 253 255 254 251 248 246 244 245 247 246 244 243 245 246 246 244 245 248 251 252 256 259 258 253 249 250 256 256 248 242 245 251 252 251 250 249 249 250 252 254
240 238 237 237 238 239 240 241 241 243 245 248 249 250 252 253 254 253 253 254 254 254 251 250 251 252 251 248 247 248 248 249 249 247 245 246 248 249 249 249 250 251 253 256 258 259 258 252 248 253 257 253 248 245 244 244 246 247 246 246 246 247 248
244 243 242 241 240 240 241 242 242 242 243 245 247 248 249 250 251 250 250 250 250 250 249 246 245 247 250 250 251 251 250 250 249 249 247 247 249 251 251 251 252 253 253 254 254 255 260 260 253 252 257 259 256 251 247 247 249 248 245 244 246 247 246
245 245 246 246 245 244 244 244 244 243 243 243 244 245 246 246 246 247 247 246 246 246 246 245 243 244 247 250 250 249 248 247 246 247 247 247 248 250 252 253 255 256 255 254 251 252 258 259 251 252 261 264 259 255 255 257 257 256 252 250 250 250 249
245 245 247 247 246 245 245 245 245 244 243 243 243 244 244 243 243 244 244 242 242 243 244 245 244 243 244 246 247 247 246 245 244 244 245 247 248 249 252 254 256 257 257 257 254 251 254 255 254 259 267 267 264 265 267 264 258 256 254 253 252 253 254
243 243 244 245 245 246 245 244 244 244 242 241 242 244 244 243 242 243 243 242 241 241 242 243 244 243 243 243 244 245 244 244 244 245 245 247 248 250 251 253 255 256 257 258 258 256 256 258 260 262 264 265 266 268 269 267 264 263 260 256 256 257 257
239 239 239 240 240 243 245 244 242 242 242 241 240 241 244 244 243 242 242 242 242 241 242 242 243 243 242 242 243 244 244 243 244 245 247 248 249 250 251 252 254 256 257 259 261 262 262 263 264 264 264 265 264 262 261 264 270 275 276 274 271 266 260
238 238 236 234 233 236 242 244 241 240 241 241 240 240 241 242 243 242 240 239 240 240 240 241 242 243 241 240 241 243 244 244 244 244 246 248 248 249 250 252 253 256 258 259 261 263 264 266 266 265 264 263 261 260 261 265 271 277 280 281 281 279 273
240 240 239 237 235 236 240 243 241 239 239 240 240 240 239 239 241 242 240 237 237 237 236 236 239 240 239 237 237 239 240 242 243 243 244 246 247 248 250 252 253 255 257 259 261 263 264 265 265 264 262 261 260 260 262 265 270 275 277 277 276 276 275
243 245 245 244 244 244 245 246 245 243 241 240 238 237 236 236 239 241 239 236 236 237 237 236 236 237 237 236 235 236 237 239 242 243 243 244 246 247 249 251 252 254 256 258 259 261 262 263 263 262 262 261 261 261 263 265 267 269 272 274 275 273 270
243 245 247 249 251 251 251 251 251 250 249 246 243 240 237 235 236 238 237 233 233 236 237 237 236 236 236 237 236 236 238 239 239 241 242 243 245 247 249 250 251 252 254 255 257 258 258 259 260 260 260 260 260 261 262 264 265 266 267 269 269 268 267
242 244 246 249 252 253 254 254 254 254 254 253 253 253 245 236 234 234 234 232 233 234 235 237 237 235 234 236 237 237 238 239 239 240 242 243 246 247 249 249 250 251 252 253 254 254 255 255 256 257 257 257 257 257 258 259 260 262 262 262 262 263 263
244 245 247 249 251 252 253 255 256 256 256 255 254 256 252 243 236 233 231 231 234 236 235 236 237 236 234 235 237 238 239 239 239 240 241 243 245 247 249 250 250 251 251 251 251 252 252 252 253 254 255 254 254 254 254 254 255 257 258 258 258 259 259
244 247 249 251 251 250 251 253 254 255 256 255 253 253 252 250 244 238 234 234 236 238 239 239 239 238 238 237 238 239 240 240 241 241 242 243 245 246 248 250 250 251 251 250 250 250 250 250 251 251 252 252 252 252 252 252 252 254 256 257 257 258 259
242 243 245 245 245 246 246 248 250 252 252 253 252 250 249 249 246 242 240 239 238 238 241 243 242 241 240 239 239 239 240 241 242 243 244 245 246 247 249 250 250 251 251 250 250 250 250 250 250 250 250 250 249 250 251 252 252 253 254 256 258 259 261